| time (UTC) | temp C | wind direction | speed KPH | gust KPH | rain 1hr cm | rain 24hr cm | rain mn cm | humidity % | barometer mb |
| 20260504011004 | 17 | 302 | 0.0 | 0.0 | 0.00 | 0.05 | 0.00 | 50 | 1018.7 |
| 20260504010004 | 18 | 302 | 0.0 | 0.0 | 0.00 | 0.05 | 0.00 | 50 | 1018.7 |
| 20260504005004 | 18 | 302 | 0.0 | 1.6 | 0.00 | 0.05 | 0.00 | 48 | 1018.6 |
| 20260504004003 | 19 | 302 | 0.0 | 0.0 | 0.00 | 0.05 | 0.00 | 45 | 1018.5 |
| 20260504003004 | 20 | 302 | 0.0 | 0.0 | 0.00 | 0.05 | 0.00 | 42 | 1018.5 |
| 20260504002004 | 21 | 302 | 0.0 | 0.0 | 0.00 | 0.05 | 0.00 | 39 | 1018.4 |
| 20260504000004 | 22 | 302 | 1.6 | 4.8 | 0.00 | 0.10 | 0.00 | 36 | 1018.4 |
| 20260503081004 | 10 | 332 | 3.2 | 4.8 | 0.00 | 1.40 | 0.00 | 71 | 1019.0 |
| 20260503071004 | 11 | 320 | 1.6 | 4.8 | 0.00 | 1.63 | 0.00 | 67 | 1018.5 |
| 20260503054005 | 12 | 355 | 1.6 | 3.2 | 0.00 | 2.31 | 0.00 | 65 | 1018.4 |
| 20260503053005 | 12 | 355 | 1.6 | 4.8 | 0.00 | 2.39 | 0.00 | 62 | 1018.3 |
| 20260503052004 | 12 | 328 | 1.6 | 4.8 | 0.00 | 2.49 | 0.00 | 61 | 1018.2 |
| 20260503051005 | 12 | 349 | 1.6 | 8.0 | 0.00 | 2.59 | 0.00 | 60 | 1018.1 |
| 20260503050005 | 13 | 338 | 3.2 | 8.0 | 0.00 | 2.67 | 0.00 | 60 | 1018.0 |
| 20260503045004 | 13 | 336 | 3.2 | 8.0 | 0.00 | 2.72 | 0.00 | 60 | 1017.9 |
| 20260503043004 | 13 | 329 | 4.8 | 8.0 | 0.00 | 2.84 | 0.00 | 59 | 1017.9 |
| 20260503042004 | 13 | 340 | 3.2 | 4.8 | 0.00 | 2.90 | 0.00 | 58 | 1017.8 |
| 20260503041005 | 14 | 339 | 3.2 | 4.8 | 0.00 | 2.92 | 0.00 | 57 | 1017.6 |
| 20260503040005 | 14 | 343 | 3.2 | 8.0 | 0.00 | 3.00 | 0.00 | 57 | 1017.5 |
| 20260503035004 | 14 | 337 | 3.2 | 4.8 | 0.00 | 3.07 | 3.00 | 56 | 1017.4 |
| 20260503034005 | 15 | 336 | 3.2 | 9.7 | 0.00 | 3.07 | 3.00 | 56 | 1017.3 |
| 20260503032004 | 15 | 345 | 3.2 | 9.7 | 0.00 | 3.10 | 3.00 | 56 | 1017.3 |
| 20260503025004 | 15 | 331 | 3.2 | 8.0 | 0.00 | 3.10 | 3.00 | 60 | 1017.1 |
| 20260503024005 | 16 | 333 | 3.2 | 4.8 | 0.00 | 3.15 | 3.00 | 62 | 1016.9 |
| 20260503023004 | 16 | 319 | 3.2 | 8.0 | 0.00 | 3.23 | 3.00 | 64 | 1016.8 |
| 20260503022005 | 16 | 338 | 3.2 | 14.5 | 0.00 | 3.28 | 3.00 | 67 | 1016.7 |
| 20260503021004 | 16 | 343 | 3.2 | 11.3 | 0.00 | 3.33 | 3.00 | 70 | 1016.4 |
| 20260503015005 | 16 | 320 | 3.2 | 11.3 | 0.00 | 3.43 | 3.00 | 78 | 1015.8 |
| 20260503014005 | 15 | 291 | 3.2 | 11.3 | 0.00 | 3.43 | 3.00 | 82 | 1015.5 |
| 20260503013003 | 16 | 290 | 0.0 | 0.0 | 0.00 | 3.43 | 3.00 | 83 | 1015.3 |